Montross, Virginia, United States (22520)
Lat: 38.09N, Lon: 76.83W
Wx Zone: VAZ075
Local Info
Past Weather Observations for Saturday, August 30, 2014

NOTE: This archive is for the closest National Weather Service station to Montross. Information may differ from the station used for current weather conditions.

Click here for Long-term Archive

Time Weather Temperature Dewpoint Humidity Pressure Winds Precip Visibility
23:52
Clear
75°F / 24°C 72°F / 22°C 89% 30.15 in
(1021 mb)
S 3.5 mph
(S 6 kph)
- 9SM
22:52
Clear
75°F / 24°C 72°F / 22°C 89% 30.15 in
(1021 mb)
SSE 3.5 mph
(SSE 6 kph)
- 10SM
21:52
Clear
75°F / 24°C 72°F / 22°C 89% 30.15 in
(1021 mb)
SSE 6.9 mph
(SSE 11 kph)
- 10SM
20:52
Clear
75°F / 24°C 72°F / 22°C 89% 30.15 in
(1021 mb)
S 8.1 mph
(S 13 kph)
- 10SM
19:52
Clear
75°F / 24°C 72°F / 22°C 89% 30.15 in
(1021 mb)
S 6.9 mph
(S 11 kph)
- 10SM
18:52
Clear
77°F / 25°C 70°F / 21°C 79% 30.12 in
(1020 mb)
SSE 6.9 mph
(SSE 11 kph)
- 10SM
17:52
Clear
79°F / 26°C 70°F / 21°C 74% 30.12 in
(1020 mb)
SSE 10.4 mph
(SSE 17 kph)
- 10SM
16:52
Partly Cloudy
81°F / 27°C 70°F / 21°C 70% 30.15 in
(1021 mb)
SSE 15 mph
(SSE 24 kph)
- 10SM
15:52
Partly Cloudy
81°F / 27°C 66°F / 19°C 62% 30.15 in
(1021 mb)
SE 10.4 mph
(SE 17 kph)
- 10SM
14:52
Partly Cloudy
82°F / 28°C 66°F / 19°C 58% 30.15 in
(1021 mb)
SE 13.8 mph
(SE 22 kph)
- 10SM
13:52
Partly Cloudy
82°F / 28°C 66°F / 19°C 58% 30.18 in
(1022 mb)
SSE 12.7 mph
(SSE 20 kph)
- 10SM
12:52
Mostly Cloudy
81°F / 27°C 66°F / 19°C 62% 30.21 in
(1023 mb)
SE 12.7 mph
(SE 20 kph)
- 10SM
11:52
Mostly Cloudy
81°F / 27°C 66°F / 19°C 62% 30.21 in
(1023 mb)
SSE 13.8 mph
(SSE 22 kph)
- 10SM
10:52
Overcast
77°F / 25°C 64°F / 18°C 65% 30.24 in
(1024 mb)
SE 8.1 mph
(SE 13 kph)
- 10SM
09:52
Overcast
75°F / 24°C 64°F / 18°C 69% 30.24 in
(1024 mb)
SSE 6.9 mph
(SSE 11 kph)
- 10SM
08:52
Overcast
73°F / 23°C 64°F / 18°C 74% 30.24 in
(1024 mb)
SSE 5.8 mph
(SSE 9 kph)
- 10SM
07:52
Overcast
73°F / 23°C 63°F / 17°C 69% 30.24 in
(1024 mb)
SSE 5.8 mph
(SSE 9 kph)
- 10SM
06:52
Mostly Cloudy
73°F / 23°C 63°F / 17°C 69% 30.24 in
(1024 mb)
S 5.8 mph
(S 9 kph)
- 10SM
05:52
Mostly Cloudy
70°F / 21°C 63°F / 17°C 78% 30.24 in
(1024 mb)
S 3.5 mph
(S 6 kph)
- 10SM
05:13
Overcast
70°F / 21°C 63°F / 17°C 78% 30.21 in
(1023 mb)
SSE 3.5 mph
(SSE 6 kph)
- 10SM
04:52
Mostly Cloudy
68°F / 20°C 63°F / 17°C 83% 30.21 in
(1023 mb)
Calm - 10SM
03:52
Overcast
68°F / 20°C 63°F / 17°C 83% 30.21 in
(1023 mb)
S 3.5 mph
(S 6 kph)
- 10SM
02:52
Mostly Cloudy
66°F / 19°C 61°F / 16°C 83% 30.21 in
(1023 mb)
SSE 4.6 mph
(SSE 7 kph)
- 10SM
01:52
Clear
64°F / 18°C 59°F / 15°C 83% 30.21 in
(1023 mb)
SW 3.5 mph
(SW 6 kph)
- 10SM
00:52
Overcast
72°F / 22°C 59°F / 15°C 65% 30.21 in
(1023 mb)
SE 6.9 mph
(SE 11 kph)
- 10SM
Time Weather Temperature Dewpoint Humidity Pressure Winds Precip Visibility


Weather for websites

WeatherForYou.com, LLC is not responsible for any damages or problems caused by this service. Current weather conditions are obtained from the closest station including government and personal stations which may have varying degrees of accuracy. Weather forecasts are derived from the NOAA NDFD. Like all things, this site belongs to Jesus Christ... He just trusts me to maintain it. If you have any questions or comments email webmaster@weatherforyou.com

Copyright © 2014, WeatherForYou.com LLC. All rights reserved.